Location: Cudham
(51.3000°N, 0.0667°E)
Time: 16:26:09
(UTC+00:00)

USA 229 DEB - Pass Details

Date: 26 April 2026
Orbit: 844 x 1364 km, 63.4° (Epoch: 10 January)

Event Time Altitude Azimuth Distance (km) Brightness Sun altitude
Rises 23:47:22 0° 314° (NW) 4,000 7.4 -24.9°
Reaches altitude 10° 23:50:07 10° 307° (NW) 3,110 6.6 -24.9°
Maximum altitude 23:57:02 41° 241° (WSW) 1,777 4.6 -24.9°
Enters shadow 23:58:26 38° 218° (SW) 1,872 4.5 -24.9°
